Tracking 25963 objects as of 12-Aug-2022
HD Live streaming from Space Station
objects crossing your sky now

RESURS O1 DEB

Track RESURS O1 DEB now!
10-day predictions


NORAD ID: 47224
Int'l Code: 1994-074DL
Perigee: 572.9 km
Apogee: 581.4 km
Inclination: 97.9 °
Period: 96.1 minutes
Semi major axis: 6948 km
RCS: Unknown
Launch date: November 4, 1994
Source: Commonwealth of Independent States (former USSR) (CIS)
Launch site: TYURATAM MISSILE AND SPACE COMPLEX (TTMTR)

Note: This is SATELLITE DEBRIS
aabbcc
Your satellite tracking list
Your tracking list is empty




NASA's NSSDC Master Catalog

Two Line Element Set (TLE):
1 47224U 94074DK  22224.10563963  .00044343  00000-0  36429-2 0  9992
2 47224  97.9244 278.3405 0006093 107.2500 252.9390 14.98995366 93628
Source of the keplerian elements: AFSPC